When you browse on this site, cookies collect data to enhance your experience and personalize the content and advertising you see.
Visit our Privacy Policy to learn more. By continuing to use the site, you agree to this use of cookies and data.
  • In Hungary
  • List of Countries
  • For 7 days
  • Water Temperature
  • Satellite Maps
  • Weather Map
  • News
  • Weather Widgets
  • user-avatar
    Login

    Hourly Weather Reus

    Today, 18 January, Friday

    Time Temperature Precipitation Wind Pressure Humidity
    00:00 +5°C° 0 mm 3 mps 751 mmHg 79%
    01:00 +5°C° 0 mm 3 mps 751 mmHg 80%
    02:00 +5°C° 0 mm 3 mps 751 mmHg 82%
    03:00 +4°C° 0 mm 4 mps 751 mmHg 83%
    04:00 +4°C° 0 mm 4 mps 751 mmHg 84%
    05:00 +3°C° 0 mm 4 mps 751 mmHg 85%
    06:00 +3°C° 0 mm 4 mps 751 mmHg 86%
    07:00 +4°C° 0 mm 4 mps 751 mmHg 84%
    08:00 +4°C° 0 mm 4 mps 751 mmHg 81%
    09:00 +5°C° 0 mm 4 mps 751 mmHg 79%
    10:00 +6°C° 0 mm 4 mps 751 mmHg 72%
    11:00 +7°C° 0 mm 4 mps 751 mmHg 66%
    12:00 +8°C° 0 mm 4 mps 751 mmHg 60%
    13:00 +8°C° 0 mm 4 mps 750 mmHg 59%
    14:00 +8°C° 0 mm 4 mps 750 mmHg 57%
    15:00 +10°C° 0 mm 4 mps 750 mmHg 56%
    16:00 +8°C° 0 mm 4 mps 750 mmHg 58%
    17:00 +7°C° 0 mm 4 mps 750 mmHg 60%
    18:00 +8°C° 0 mm 3 mps 750 mmHg 62%
    19:00 +8°C° 0 mm 3 mps 750 mmHg 63%
    20:00 +7°C° 0 mm 3 mps 750 mmHg 63%
    21:00 +7°C° 0 mm 2 mps 750 mmHg 64%
    22:00 +6°C° 0 mm 2 mps 750 mmHg 66%
    23:00 +6°C° 0 mm 2 mps 750 mmHg 68%

    Tomorrow, 19 January, Saturday

    Time Temperature Precipitation Wind Pressure Humidity
    00:00 +5°C° 0 mm 2 mps 750 mmHg 70%
    01:00 +5°C° 0 mm 2 mps 750 mmHg 71%
    02:00 +5°C° 0 mm 2 mps 750 mmHg 73%
    03:00 +4°C° 0 mm 2 mps 750 mmHg 74%
    04:00 +4°C° 0 mm 2 mps 750 mmHg 74%
    05:00 +4°C° 0 mm 2 mps 750 mmHg 75%
    06:00 +4°C° 0 mm 2 mps 749 mmHg 75%
    07:00 +5°C° 0 mm 2 mps 749 mmHg 72%
    08:00 +6°C° 0 mm 2 mps 750 mmHg 68%
    09:00 +6°C° 0 mm 2 mps 750 mmHg 65%
    10:00 +9°C° 0 mm 1 mps 749 mmHg 60%
    11:00 +10°C° 0 mm 1 mps 749 mmHg 56%
    12:00 +10°C° 0 mm 0 mps 748 mmHg 51%
    13:00 +12°C° 0 mm 1 mps 748 mmHg 51%
    14:00 +12°C° 0 mm 1 mps 747 mmHg 51%
    15:00 +12°C° 0 mm 2 mps 746 mmHg 51%
    16:00 +10°C° 0 mm 2 mps 746 mmHg 56%
    17:00 +9°C° 0 mm 2 mps 746 mmHg 60%
    18:00 +9°C° 0 mm 2 mps 746 mmHg 64%
    19:00 +9°C° 0.3 mm 2 mps 746 mmHg 69%
    20:00 +8°C° 0.3 mm 2 mps 745 mmHg 74%
    21:00 +9°C° 0.3 mm 1 mps 745 mmHg 79%
    22:00 +9°C° 0.1 mm 1 mps 745 mmHg 81%
    23:00 +9°C° 0.1 mm 1 mps 744 mmHg 82%

    Day after tomorrow, 20 January, Sunday

    Time Temperature Precipitation Wind Pressure Humidity
    00:00 +9°C° 0.1 mm 1 mps 744 mmHg 84%
    01:00 +9°C° 0 mm 1 mps 744 mmHg 85%
    02:00 +8°C° 0 mm 1 mps 743 mmHg 86%
    03:00 +8°C° 0 mm 1 mps 743 mmHg 87%
    04:00 +7°C° 0 mm 2 mps 743 mmHg 86%
    05:00 +7°C° 0 mm 2 mps 743 mmHg 85%
    06:00 +5°C° 0 mm 3 mps 743 mmHg 85%
    07:00 +6°C° 0 mm 4 mps 744 mmHg 82%
    08:00 +6°C° 0 mm 5 mps 744 mmHg 80%
    09:00 +5°C° 0 mm 6 mps 745 mmHg 78%
    10:00 +7°C° 0 mm 5 mps 745 mmHg 73%
    11:00 +8°C° 0 mm 4 mps 745 mmHg 69%
    12:00 +10°C° 0 mm 3 mps 745 mmHg 65%
    13:00 +12°C° 0 mm 2 mps 745 mmHg 63%
    14:00 +12°C° 0 mm 2 mps 745 mmHg 61%
    15:00 +13°C° 0 mm 2 mps 745 mmHg 59%
    16:00 +12°C° 0 mm 2 mps 746 mmHg 62%
    17:00 +10°C° 0 mm 2 mps 747 mmHg 66%
    18:00 +9°C° 0 mm 2 mps 748 mmHg 70%
    19:00 +8°C° 0 mm 2 mps 748 mmHg 72%
    20:00 +8°C° 0 mm 2 mps 749 mmHg 75%
    21:00 +7°C° 0 mm 2 mps 749 mmHg 78%
    22:00 +7°C° 0 mm 3 mps 749 mmHg 80%
    23:00 +7°C° 0 mm 3 mps 749 mmHg 81%

    21 January, Monday

    Time Temperature Precipitation Wind Pressure Humidity
    00:00 +5°C° 0 mm 3 mps 750 mmHg 83%
    01:00 +5°C° 0 mm 3 mps 750 mmHg 84%
    02:00 +5°C° 0 mm 3 mps 750 mmHg 85%
    03:00 +4°C° 0 mm 3 mps 750 mmHg 86%
    04:00 +4°C° 0 mm 3 mps 750 mmHg 86%
    05:00 +4°C° 0 mm 3 mps 750 mmHg 85%
    06:00 +4°C° 0 mm 3 mps 750 mmHg 85%
    07:00 +4°C° 0 mm 3 mps 751 mmHg 81%
    08:00 +5°C° 0 mm 3 mps 751 mmHg 77%
    09:00 +7°C° 0 mm 3 mps 751 mmHg 73%
    10:00 +8°C° 0 mm 3 mps 751 mmHg 65%
    11:00 +10°C° 0 mm 4 mps 751 mmHg 57%
    12:00 +11°C° 0 mm 4 mps 751 mmHg 49%
    13:00 +11°C° 0 mm 4 mps 751 mmHg 47%
    14:00 +12°C° 0 mm 4 mps 751 mmHg 44%
    15:00 +12°C° 0 mm 3 mps 751 mmHg 42%
    16:00 +11°C° 0 mm 4 mps 751 mmHg 46%
    17:00 +10°C° 0 mm 4 mps 751 mmHg 50%
    18:00 +7°C° 0 mm 4 mps 752 mmHg 54%
    19:00 +7°C° 0 mm 5 mps 752 mmHg 57%
    20:00 +6°C° 0 mm 5 mps 753 mmHg 59%
    21:00 +4°C° 0 mm 6 mps 753 mmHg 61%
    22:00 +3°C° 0 mm 6 mps 753 mmHg 63%
    23:00 +3°C° 0 mm 6 mps 753 mmHg 64%

    22 January, Tuesday

    Time Temperature Precipitation Wind Pressure Humidity
    00:00 +2°C° 0 mm 6 mps 753 mmHg 66%
    01:00 +2°C° 0 mm 6 mps 752 mmHg 69%
    02:00 +1°C° 0 mm 6 mps 752 mmHg 71%
    03:00 +1°C° 0 mm 6 mps 751 mmHg 74%
    04:00 +1°C° 0 mm 6 mps 751 mmHg 73%
    05:00 +1°C° 0 mm 6 mps 750 mmHg 73%
    06:00 0°C° 0 mm 7 mps 750 mmHg 73%
    07:00 +2°C° 0 mm 7 mps 749 mmHg 70%
    08:00 +3°C° 0 mm 7 mps 749 mmHg 67%
    09:00 +4°C° 0 mm 8 mps 749 mmHg 64%
    10:00 +5°C° 0 mm 8 mps 748 mmHg 62%
    11:00 +7°C° 0 mm 9 mps 747 mmHg 60%
    12:00 +8°C° 0 mm 10 mps 746 mmHg 57%
    13:00 +8°C° 0 mm 11 mps 745 mmHg 56%
    14:00 +8°C° 0 mm 12 mps 744 mmHg 55%
    15:00 +8°C° 0 mm 13 mps 743 mmHg 54%
    16:00 +8°C° 0 mm 13 mps 743 mmHg 56%
    17:00 +6°C° 0 mm 14 mps 742 mmHg 58%
    18:00 +6°C° 0 mm 14 mps 742 mmHg 60%
    19:00 +5°C° 0 mm 14 mps 742 mmHg 60%
    20:00 +4°C° 0 mm 13 mps 742 mmHg 61%
    21:00 +4°C° 0 mm 12 mps 742 mmHg 61%
    22:00 +3°C° 0 mm 11 mps 742 mmHg 64%
    23:00 +3°C° 0 mm 11 mps 741 mmHg 67%

    23 January, Wednesday

    Time Temperature Precipitation Wind Pressure Humidity
    00:00 +3°C° 0 mm 10 mps 741 mmHg 70%
    01:00 +3°C° 0 mm 10 mps 740 mmHg 71%
    02:00 +3°C° 0 mm 10 mps 739 mmHg 72%
    03:00 +3°C° 0 mm 10 mps 738 mmHg 72%
    04:00 +4°C° 0.1 mm 11 mps 737 mmHg 71%
    05:00 +4°C° 0.1 mm 11 mps 737 mmHg 71%
    06:00 +5°C° 0.1 mm 12 mps 736 mmHg 70%
    07:00 +5°C° 0 mm 12 mps 735 mmHg 71%
    08:00 +5°C° 0 mm 12 mps 735 mmHg 71%
    09:00 +7°C° 0 mm 12 mps 734 mmHg 71%
    10:00 +8°C° 0 mm 13 mps 734 mmHg 63%
    11:00 +10°C° 0 mm 14 mps 733 mmHg 54%
    12:00 +13°C° 0 mm 15 mps 733 mmHg 46%
    13:00 +12°C° 0 mm 14 mps 733 mmHg 47%
    14:00 +10°C° 0 mm 13 mps 732 mmHg 48%
    15:00 +9°C° 0 mm 12 mps 732 mmHg 49%
    16:00 +8°C° 0 mm 11 mps 733 mmHg 53%
    17:00 +7°C° 0 mm 10 mps 733 mmHg 57%
    18:00 +6°C° 0 mm 9 mps 734 mmHg 61%
    19:00 +5°C° 0 mm 9 mps 734 mmHg 62%
    20:00 +5°C° 0 mm 9 mps 735 mmHg 63%
    21:00 +3°C° 0 mm 9 mps 735 mmHg 64%
    22:00 +3°C° 0 mm 10 mps 735 mmHg 62%
    23:00 +3°C° 0 mm 10 mps 735 mmHg 59%
    Show more